Location: Newark
(17.9939°S, 31.0481°E)
Time: 01:58:49
(UTC+00:00)

Vanguard 3 - Visible Passes

Search period start: 15 November 2019 00:00
Search period end: 25 November 2019 00:00
Orbit: 508 x 3263 km, 33.3° (Epoch: 14 November)

Date Brightness Start Highest point End Pass type
(mag) Time Alt. Az. Time Alt. Az. Time Alt. Az.
15 Nov 8.7 01:46:20 13° SW 01:49:09 22° S 01:53:57 10° SE visible
16 Nov 8.8 00:36:30 22° SSE 00:36:30 22° SSE 00:39:01 10° SE visible
16 Nov 9.3 02:44:20 10° SW 02:48:17 20° S 02:53:46 10° SE visible
17 Nov 8.8 01:31:13 12° SW 01:33:33 17° S 01:37:16 10° SE visible
18 Nov 9.3 00:21:23 15° SSE 00:21:23 15° SSE 00:22:37 10° SE visible
18 Nov 9.3 02:29:12 10° SSW 02:32:37 17° S 02:37:09 10° SE visible
19 Nov 9.0 01:16:06 11° SSW 01:17:57 14° S 01:20:38 10° SSE visible
20 Nov 9.7 00:06:15 10° SSE 00:06:15 10° SSE 00:06:16 10° SSE visible
20 Nov 9.3 02:14:01 10° SSW 02:16:58 16° SSE 02:20:41 10° SE visible
21 Nov 9.1 01:00:59 10° SSW 01:02:21 12° S 01:03:58 10° SSE visible
22 Nov 9.3 01:58:44 10° SSW 02:01:17 14° SSE 02:04:23 10° SE visible
24 Nov 9.3 01:43:18 10° SSW 01:45:35 14° SSE 01:48:17 10° SE visible
24 Nov 9.8 17:47:08 10° N 17:51:15 16° NNE 17:51:15 16° NNE visible
